This is the latest recevied weather packets stored in our database for station/object OK2VOP-6. If no packets are shown the sender has not sent any weather packets the latest 10 day(s).
| Time | Temp. | Humidity | Pressure | Rain* | Wind** | Luminosity | Snow |
|---|---|---|---|---|---|---|---|
| 1788086693 | 27.78° C | 19% | - | 0 mm | - | - | - |
| 1788085488 | 27.22° C | 20% | - | 0 mm | - | - | - |
| 1788084284 | 26.67° C | 26% | - | 0 mm | - | - | - |
| 1788083078 | 25.56° C | 30% | - | 0 mm | - | - | - |
| 1788081874 | 24.44° C | 37% | - | 0 mm | - | - | - |
| 1788080669 | 23.89° C | 36% | - | 0 mm | - | - | - |
| 1788079464 | 23.33° C | 37% | - | 0 mm | - | - | - |
| 1788078259 | 22.78° C | 40% | - | 0 mm | - | - | - |
| 1788077054 | 22.22° C | 44% | - | 0 mm | - | - | - |
| 1788075850 | 21.67° C | 43% | - | 0 mm | - | - | - |
| 1788074645 | 20.56° C | 47% | - | 0 mm | - | - | - |
| 1788072235 | 18.89° C | 50% | - | 0 mm | - | - | - |
| 1788071030 | 18.33° C | 55% | - | 0 mm | - | - | - |
| 1788069826 | 17.78° C | 57% | - | 0 mm | - | - | - |
| 1788068621 | 17.22° C | 56% | - | 0 mm | - | - | - |
| 1788067416 | 16.67° C | 58% | - | 0 mm | - | - | - |
| 1788066211 | 15° C | 61% | - | 0 mm | - | - | - |
| 1788065007 | 15° C | 59% | - | 0 mm | - | - | - |
| 1788063802 | 15° C | 59% | - | 0 mm | - | - | - |
| 1788062597 | 15.56° C | 57% | - | 0 mm | - | - | - |
| 1788061392 | 15° C | 58% | - | 0 mm | - | - | - |
| 1788060187 | 15° C | 57% | - | 0 mm | - | - | - |
| 1788058983 | 15.56° C | 55% | - | 0 mm | - | - | - |
| 1788057778 | 16.11° C | 53% | - | 0 mm | - | - | - |
| 1788056573 | 16.11° C | 54% | - | 0 mm | - | - | - |
* Rain latest hour (hover to see other rain measurements)
** Current wind speed in m/s (hover to see current wind gust speed)